Location: Góry Miechowskie
(50.3599°N, 20.1803°E)
Time: 00:40:24
(UTC+00:00)

AQUA - Visible Passes

Search period start: 18 September 2024 00:00
Search period end: 28 September 2024 00:00
Orbit: 692 x 695 km, 98.3° (Epoch: 17 September)

Date Brightness Start Highest point End Pass type
(mag) Time Alt. Az. Time Alt. Az. Time Alt. Az.
18 Sep 3.6 01:35:53 10° NNE 01:40:38 85° WNW 01:40:52 80° SW visible
18 Sep 5.6 03:14:55 10° NNW 03:17:29 15° NW 03:19:34 11° W visible
19 Sep 5.3 00:38:39 10° NNE 00:42:30 30° E 00:42:30 30° E visible
19 Sep 4.3 02:16:04 10° N 02:20:27 39° WNW 02:21:11 36° W visible
20 Sep 4.0 01:18:14 10° NNE 01:22:48 67° E 01:22:48 67° E visible
20 Sep 5.3 02:56:41 10° NNW 03:00:02 20° WNW 03:01:29 17° W visible
21 Sep 5.9 00:21:20 10° NE 00:24:24 21° E 00:24:24 21° E visible
21 Sep 3.9 01:58:13 10° N 02:02:51 55° WNW 02:03:05 54° W visible
21 Sep 6.0 03:39:12 10° NW 03:39:23 10° NW 03:39:36 10° NW visible
22 Sep 4.7 01:00:36 10° NNE 01:04:40 45° E 01:04:40 45° E visible
22 Sep 4.9 02:38:35 10° N 02:42:30 27° WNW 02:43:21 25° W visible
23 Sep 6.4 00:04:16 10° NE 00:06:15 15° ENE 00:06:15 15° ENE visible
23 Sep 3.7 01:40:24 10° NNE 01:44:56 76° NW 01:44:56 76° NW visible
23 Sep 5.7 03:19:35 10° NNW 03:21:56 14° NW 03:23:37 12° WNW visible
24 Sep 5.4 00:43:01 10° NNE 00:46:30 31° ENE 00:46:30 31° ENE visible
24 Sep 4.4 02:20:33 10° N 02:24:52 36° WNW 02:25:11 36° WNW visible
25 Sep 4.1 01:22:36 10° NNE 01:26:43 63° NE 01:26:43 63° NE visible
25 Sep 5.3 03:01:09 10° NNW 03:04:22 19° WNW 03:05:25 17° WNW visible
26 Sep 6.0 00:25:33 10° NE 00:28:15 21° ENE 00:28:15 21° ENE visible
26 Sep 4.1 02:02:34 10° N 02:06:56 50° WNW 02:06:56 50° WNW visible
27 Sep 4.8 01:04:50 10° NNE 01:08:28 43° ENE 01:08:28 43° ENE visible
27 Sep 4.9 02:42:54 10° N 02:46:42 25° WNW 02:47:08 25° WNW visible
